Bangkok (Don Mueang), Thailand

6:49 PM +07 on May 29, 2017 (GMT +0700)
Bangkok International

Weather History for VTBD - March, 2013

Change the Weather History Date:

Sunday, March 24, 2013

  Actual Average Record
Temperature  
Mean Temperature 90 °F -  
Max Temperature 99 °F 94 °F 104 °F (1997)
Min Temperature 81 °F 78 °F 75 °F (1999)
Cooling Degree Days 25    
Growing Degree Days 40 (Base 50)    
Moisture  
Dew Point 76 °F    
Average Humidity 67    
Maximum Humidity 84    
Minimum Humidity 42    
Precipitation  
Precipitation 0.00 in 0.07 in - ()
Sea Level Pressure  
Sea Level Pressure 29.76 in    
Wind  
Wind Speed 7 mph ()    
Max Wind Speed 14 mph    
Max Gust Speed -    
Visibility 6.2 miles    
Events      
Averages and records for this station are not official NWS values.
T = Trace of Precipitation, MM = Missing Value Source: Averaged Metar Reports

Daily Weather History Graph

Daily Weather History Graph

Search for Another Location

Airport or City:

Trip Planner

Search our weather history database for the weather conditions in past years. The results will help you decide how hot, cold, wet, or windy it might be!

Date:

Astronomy

Mar. 24, 2013 Rise Set
Actual Time 6:19 AM +07 6:28 PM +07
Civil Twilight 5:57 AM +07 6:50 PM +07
Nautical Twilight 5:33 AM +07 7:14 PM +07
Astronomical Twilight 5:08 AM +07 7:39 PM +07
Moon 3:48 PM +07 (3/24) 3:43 AM +07 (3/24)
Length of Visible Light 12h 52m
Length of Day
12h 09m
Waxing Gibbous, 88% of the Moon is Illuminated
Mar 24
Waxing Gibbous
Mar 27
Full
Apr 3
Last Quarter
Apr 10
New
Apr 18
First Quarter

Hourly Weather History & Observations

Time (+07) Temp. Heat Index Dew Point Humidity Pressure Visibility Wind Dir Wind Speed Gust Speed Precip Events Conditions
12:00 AM 86.0 °F 96.9 °F 77.0 °F 74% 29.80 in 6.2 mi SSW 6.9 mph - N/A   Scattered Clouds
12:30 AM 84.2 °F 94.1 °F 77.0 °F 79% 29.80 in 6.2 mi SW 9.2 mph - N/A   Scattered Clouds
1:00 AM 85 °F - 77 °F 72% 29.80 in 6 mi SW 11.5 mph - -   Scattered Clouds
1:00 AM 84.2 °F 94.1 °F 77.0 °F 79% 29.80 in 6.2 mi SW 11.5 mph - N/A   Scattered Clouds
1:30 AM 84.2 °F 94.1 °F 77.0 °F 79% 29.77 in 6.2 mi SW 5.8 mph - N/A   Scattered Clouds
2:00 AM 84.2 °F 94.1 °F 77.0 °F 79% 29.77 in 6.2 mi SW 6.9 mph - N/A   Scattered Clouds
2:30 AM 84.2 °F 94.1 °F 77.0 °F 79% 29.77 in 6.2 mi SSW 6.9 mph - N/A   Scattered Clouds
3:00 AM 82.4 °F 90.9 °F 77.0 °F 84% 29.77 in 6.2 mi SSW 4.6 mph - N/A   Scattered Clouds
3:30 AM 84.2 °F 94.1 °F 77.0 °F 79% 29.77 in 6.2 mi South 4.6 mph - N/A   Scattered Clouds
4:00 AM 84.2 °F 94.1 °F 77.0 °F 79% 29.74 in 6.2 mi South 5.8 mph - N/A   Scattered Clouds
4:30 AM 84.2 °F 94.1 °F 77.0 °F 79% 29.74 in 6.2 mi South 4.6 mph - N/A   Scattered Clouds
5:00 AM 82.4 °F 90.9 °F 77.0 °F 84% 29.77 in 6.2 mi SSE 3.5 mph - N/A   Scattered Clouds
5:30 AM 82.4 °F 90.9 °F 77.0 °F 84% 29.77 in 6.2 mi South 3.5 mph - N/A   Scattered Clouds
6:00 AM 82.4 °F 90.9 °F 77.0 °F 84% 29.77 in 6.2 mi SE 3.5 mph - N/A   Scattered Clouds
6:30 AM 82.4 °F 90.9 °F 77.0 °F 84% 29.80 in 6.2 mi SE 3.5 mph - N/A   Scattered Clouds
7:00 AM 82 °F - 77 °F 80% 29.82 in 6 mi East 4.6 mph - -   Scattered Clouds
7:00 AM 82.4 °F 90.9 °F 77.0 °F 84% 29.80 in - East 4.6 mph - N/A   Clear
7:30 AM 82.4 °F 90.9 °F 77.0 °F 84% 29.83 in - ESE 5.8 mph - N/A   Clear
8:00 AM 82.4 °F 90.9 °F 77.0 °F 84% 29.83 in - ESE 4.6 mph - N/A   Clear
8:30 AM 84.2 °F 94.1 °F 77.0 °F 79% 29.86 in 6.2 mi ESE 6.9 mph - N/A   Mostly Cloudy
9:00 AM 86.0 °F 96.9 °F 77.0 °F 74% 29.86 in 6.2 mi ESE 8.1 mph - N/A   Mostly Cloudy
9:30 AM 87.8 °F 99.7 °F 77.0 °F 70% 29.86 in 6.2 mi SE 6.9 mph - N/A   Mostly Cloudy
10:00 AM 89.6 °F 102.2 °F 77.0 °F 66% 29.86 in 6.2 mi SE 8.1 mph - N/A   Mostly Cloudy
10:30 AM 91.4 °F 102.5 °F 75.2 °F 59% 29.83 in 6.2 mi SSW 8.1 mph - N/A   Mostly Cloudy
11:00 AM 91.4 °F 102.5 °F 75.2 °F 59% 29.83 in 6.2 mi SSW 8.1 mph - N/A   Mostly Cloudy
11:30 AM 93.2 °F 105.0 °F 75.2 °F 56% 29.80 in 6.2 mi WSW 5.8 mph - N/A   Mostly Cloudy
12:00 PM 95.0 °F 107.4 °F 75.2 °F 53% 29.80 in 6.2 mi SSW 5.8 mph - N/A   Mostly Cloudy
12:30 PM 95.0 °F 107.4 °F 75.2 °F 53% 29.77 in 6.2 mi SW 8.1 mph - N/A   Mostly Cloudy
1:00 PM 96 °F - 75 °F 42% 29.78 in 6 mi SSW 6.9 mph - -   Scattered Clouds
1:00 PM 96.8 °F 109.6 °F 75.2 °F 50% 29.77 in 6.2 mi SSW 6.9 mph - N/A   Mostly Cloudy
1:30 PM 96.8 °F 109.6 °F 75.2 °F 50% 29.74 in 6.2 mi WSW 5.8 mph - N/A   Mostly Cloudy
2:00 PM 98.6 °F 111.7 °F 75.2 °F 47% 29.74 in 6.2 mi WSW 8.1 mph - N/A   Mostly Cloudy
2:30 PM 98.6 °F 111.7 °F 75.2 °F 47% 29.71 in 6.2 mi WSW 11.5 mph - N/A   Mostly Cloudy
3:00 PM 98.6 °F 111.7 °F 75.2 °F 47% 29.68 in 6.2 mi SSW 11.5 mph - N/A   Mostly Cloudy
3:30 PM 98.6 °F 111.7 °F 75.2 °F 47% 29.68 in 6.2 mi SSW 13.8 mph - N/A   Mostly Cloudy
4:00 PM 96.8 °F 109.6 °F 75.2 °F 50% 29.65 in - North - - N/A   Mostly Cloudy
4:30 PM 96.8 °F 109.6 °F 75.2 °F 50% 29.65 in 6.2 mi SSW 11.5 mph - N/A   Mostly Cloudy
5:00 PM 95.0 °F 107.4 °F 75.2 °F 53% 29.65 in 6.2 mi SSW 11.5 mph - N/A   Scattered Clouds
5:30 PM 93.2 °F 105.0 °F 75.2 °F 56% 29.65 in 6.2 mi South 10.4 mph - N/A   Scattered Clouds
6:00 PM 93.2 °F 105.0 °F 75.2 °F 56% 29.65 in 6.2 mi SSW 11.5 mph - N/A   Scattered Clouds
6:30 PM 91.4 °F 102.5 °F 75.2 °F 59% 29.68 in 6.2 mi South 8.1 mph - N/A   Scattered Clouds
7:00 PM 91 °F - 75 °F 51% 29.70 in 6 mi SSW 13.8 mph - -   Scattered Clouds
7:00 PM 91.4 °F 102.5 °F 75.2 °F 59% 29.68 in 6.2 mi SSW 13.8 mph - N/A   Scattered Clouds
7:30 PM 89.6 °F 99.8 °F 75.2 °F 62% 29.71 in 6.2 mi SSW 11.5 mph - N/A   Scattered Clouds
8:00 PM 89.6 °F 99.8 °F 75.2 °F 62% 29.71 in 6.2 mi SSW 11.5 mph - N/A   Scattered Clouds
8:30 PM 87.8 °F 97.6 °F 75.2 °F 66% 29.74 in 6.2 mi South 13.8 mph - N/A   Scattered Clouds
9:00 PM 87.8 °F 97.6 °F 75.2 °F 66% 29.74 in 6.2 mi South 10.4 mph - N/A   Scattered Clouds
9:30 PM 86.0 °F 95.1 °F 75.2 °F 70% 29.77 in 6.2 mi SSW 13.8 mph - N/A   Scattered Clouds
10:00 PM 86.0 °F 95.1 °F 75.2 °F 70% 29.77 in 6.2 mi SSW 11.5 mph - N/A   Scattered Clouds
10:30 PM 86.0 °F 96.9 °F 77.0 °F 74% 29.77 in 6.2 mi SW 13.8 mph - N/A   Scattered Clouds
11:00 PM 86.0 °F 96.9 °F 77.0 °F 74% 29.77 in 6.2 mi SSW 10.4 mph - N/A   Scattered Clouds
11:30 PM 86.0 °F 96.9 °F 77.0 °F 74% 29.77 in 6.2 mi SSW 6.9 mph - N/A   Scattered Clouds